Location: Big Prairie
(40.6673°N, 82.0952°W)
Time: 06:55:47
(UTC+00:00)

Cosmos 841 Rocket - Pass Details

Date: 28 June 2022
Orbit: 745 x 772 km, 74.0° (Epoch: 15 August)

Event Time Altitude Azimuth Distance (km) Brightness Sun altitude
Exits shadow 07:02:19 12° 129° (SE) 2,108 5.6 -22.7°
Maximum altitude 07:04:52 17° 96° (E) 1,829 5.6 -22.5°
Drops below altitude 10° 07:08:05 10° 56° (ENE) 2,270 6.7 -22.2°
Sets 07:11:13 0° 37° (NE) 3,204 8.1 -22.0°
